Regional Weather Roundup
Issued by NWS Portland, ME

Current Version | Previous Version | Text Only | Print | Product List | Glossary Off
Versions: 1 2 3 4 5 6 7 8 9 10 11 12 13 14 15 16 17 18 19 20 21 22 23 24 25 26 27 28 29 30 31 32 33 34 35 36 37 38 39 40 41 42 43 44 45 46 47 48 49 50
000 ASUS41 KGYX 280010 RWRGYX WEATHER ROUNDUP FOR MAINE AND NEW HAMPSHIRE NATIONAL WEATHER SERVICE GRAY ME 800 PM EDT WED MAY 27 2015 MEZ002-005-006-010-012-015-018-020-021-024-026-027-029-280100- MAINE CITY SKY/WX TMP DP RH WIND PRES REMARKS PORTLAND CLOUDY 69 61 75 S12G20 30.01R 6HR MIN TEMP: 69; 6HR MAX TEMP: 79; SANFORD PTCLDY 79 63 57 SW5 30.03R BAR HARBOR CLOUDY 57 57 100 S9 30.06R WISCASSET MOCLDY 67 61 81 SW9G22 30.03S 6HR MIN TEMP: 67; 6HR MAX TEMP: 76; ROCKLAND PTCLDY 63 57 82 SW16G24 30.03R FRYEBURG LGT RAIN 69 66 90 VRB6 30.02F 6HR MIN TEMP: 68; 6HR MAX TEMP: 92; 6HR PCP: 0.16; LEWISTONAUBURN CLOUDY 73 64 73 S7 30.01R AUGUSTA CLOUDY 68 62 81 SW10G21 30.02R 6HR MIN TEMP: 68; 6HR MAX TEMP: 79; WATERVILLE N/A N/A N/A N/A MISG N/A BANGOR MOCLDY 65 60 84 S8 30.02R 6HR MIN TEMP: 65; 6HR MAX TEMP: 79; GREENVILLE N/A 63 63 100 CALM 30.01S 6HR MIN TEMP: 63; 6HR MAX TEMP: 84; 6HR PCP: 0.77; MILLINOCKET LGT RAIN 67 65 93 VRB3 30.02R FOG 6HR MIN TEMP: 67; 6HR MAX TEMP: 87; 6HR PCP: 0.32; HOULTON HVY RAIN 72 64 76 W10 29.98R 6HR MIN TEMP: 72; 6HR MAX TEMP: 87; 6HR PCP: 0.05; PRESQUE ISLE CLOUDY 68 63 83 S12 29.96R 6HR MIN TEMP: 68; 6HR MAX TEMP: 86; 6HR PCP: 0.63; FRENCHVILLE CLOUDY 65 64 97 S8 29.92R 6HR MIN TEMP: 64; 6HR MAX TEMP: 84; 6HR PCP: 0.39; CARIBOU LGT RAIN 68 65 90 S9 29.94S FOG 6HR MIN TEMP: 67; 6HR MAX TEMP: 86; 6HR PCP: 0.28; $$ NHZ002-005-008-009-011-012-014-280100- NEW HAMPSHIRE CITY SKY/WX TMP DP RH WIND PRES REMARKS PORTSMOUTH MOCLDY 79 66 63 S14G21 30.02R ROCHESTER PTCLDY 81 65 58 VRB7 30.01R 6HR MIN TEMP: 81; 6HR MAX TEMP: 93; NASHUA PTCLDY 80 67 64 S8 30.08R MANCHESTER PTCLDY 81 66 60 S15G24 30.05R 6HR MIN TEMP: 81; 6HR MAX TEMP: 91; CONCORD MOCLDY 81 64 56 SW13G21 30.04R 6HR MIN TEMP: 81; 6HR MAX TEMP: 92; PLYMOUTH MOCLDY 69 69 100 CALM 30.04S BERLIN CLOUDY 68 63 84 SE8 30.02S 6HR MIN TEMP: 68; 6HR MAX TEMP: 89; 6HR PCP: 0.20; WHITEFIELD LGT RAIN 69 65 86 CALM 30.03S 6HR MIN TEMP: 69; 6HR MAX TEMP: 89; 6HR PCP: 0.67; JAFFREY LGT RAIN 71 68 90 SW8 30.13R 6HR MIN TEMP: 71; 6HR MAX TEMP: 85; 6HR PCP: 0.09; KEENE CLOUDY 70 64 83 S3 30.11R THUNDER LEBANON CLOUDY 70 68 93 W5 30.05R 6HR MIN TEMP: 68; 6HR MAX TEMP: 90; 6HR PCP: 1.04; MT WASHINGTON LGT RAIN 54 54 100 W41 N/A VSB 0 6HR MIN TEMP: 51; 6HR MAX TEMP: 61; 6HR PCP: 0.36; $$ VTZ005-007-008-280100- VERMONT CITY SKY/WX TMP DP RH WIND PRES REMARKS MONTPELIER CLOUDY 69 63 81 S7 30.06R BURLINGTON CLOUDY 75 65 70 S8 29.97R $$ MAZ007-012-024-CTZ003-RIZ002-NYZ038-NYZ072-280100- SOUTHERN NEW ENGLAND AND NY CITY SKY/WX TMP DP RH WIND PRES REMARKS BOSTON PTCLDY 73 64 73 SW16G26 30.11R WORCESTER PTCLDY 71 62 73 SW21G31 30.15R NANTUCKET CLEAR 61 57 87 SW12 30.21R PROVIDENCE MOCLDY 70 60 70 SW14G23 30.17R HARTFORD CLOUDY 74 64 71 S13 30.13R ALBANY CLOUDY 70 66 87 S10 30.06S NEW YORK CITY MOCLDY 71 60 68 VRB5 30.13R $$ ANZ081-ANZ082-ANZ150-NHZ014-MEZ023>029-280100- COASTAL MARINE OBSERVATIONS STATION/POSITION TIME TEMP WIND PRES WAVE AIR SEA DIR/SP/G HT/PER (UTC) (F) (DEG/KT/KT) (MB) (FT/S) MOUNT DESERT ROC 0000 53 190/ 26/ 29 N/A MATINICUS ROCK 0000 55 210/ 29/ 32 N/A ISLE OF SHOALS 0000 64 190/ 25/ 26 N/A JEFFREYS LEDGE 2303 48 N/A 5/ 5 CASHES LEDGE BUO 2350 57 50 N/A 6/ 7 GEORGES BANK BUO 2350 58 51 190/ 12/ 14 N/A 3/ 6 $$ .............KEY.............. WCI - WIND CHILL TC - TEMPERATURE IN CELSIUS VSB - VISIBILITY IN MILES HX - HEAT INDEX FAIR- INDICATES FEW OR NO CLOUDS BELOW 12,000 FT, WITH NO SIGNIFICANT WEATHER AND/OR OBSTRUCTIONS TO VISIBILITY.

USA.gov is the U.S. government's official web portal to all federal, state and local government web resources and services.